DECAYED

STARLINK-30177, 57305 (Decayed)

Orbit data source: Space-Track

STARLINK-30177, 57305 was a payload satellite owned by SpaceX/Seattle (US) in LEO that was launched on Mon, 10 Jul 2023 UTC via an FALCON 9 launch vehicle from the Air Force Eastern Test Range (AFETR). Payload-class satellites include a variety of spacecraft equipped with specific instruments for various scientific and technological missions. These include communications satellites like Starlink; space stations such as the ISS; scientific satellites like the Hubble; Earth observation satellites from companies like Planet Labs, Umbra, and HawkEye 360; GPS; miniature CubeSats for education and research; and military/defense satellites.

Not visible in the next 10 days
Identifier
57305, 2023-096R
Orbit
Decayed
Country
Flag of USUS
Related business
Manufacturer
SpaceX/Seattle
Mission
Decayed Commercial Communications
Bus & Motor
STARLINK V2M, Unknown motor
Mass
730 kg wet, ~700 kg dry
Launch date (UTC)
2023-07-10 (3 years ago)
Launch vehicle
FALCON 9
Launch site
Air Force Eastern Test Range (AFETR)
Object type
Payload
Rocket body
Debris
Shape & HBR
Box + 2 Pan, 17.7 m
Radar Cross Section
33.884 m², Large (>1 m²)

Expand to show TLE details & history
Last TLE update: 5 months ago

TLE from 5 months ago
0 STARLINK-30177
1 57305U 23096R   26050.94186624  .07685069  89620-5  39144-2 0  9997
2 57305  42.9683 238.7055 0022959 296.0015  63.8505 16.18871213144985
Epoch: 2026-02-19T22:36Z
TLE epoch observation values (Epoch: 2026-02-19T22:36:17.243Z)
Latitude
-0.00003°
Longitude
109.7477°
Altitude
215.731 km
Speed
7.783 km/s
True Right ascension
15h 54m 49s
True Declination
0° 00' 00"
Sunlit
Object was in daylight at epoch
Visualization orbit readout
Latitude
Unknown
Longitude
Unknown
Altitude
Unknown
Speed
Unknown
Apparent Right ascension
Unknown
Apparent Declination
Unknown
Sunlit
N/A
Visualization observer readout
Local Sidereal Time
15:51:52
Azimuth
Unknown
Elevation
Unknown
Doppler factor
Unknown
Orbital elements
Apogee altitude
239.805 km
Perigee altitude
209.486 km
Semi-major axis
6,602.783 km
Eccentricity
0.0023
Inclination
42.9683°
RAAN
238.7055°
Arg. of periapsis
296.0015°
True anomaly
64.08696°
Mean anomaly
63.8505°
Eccentric anomaly
63.9687°
Mean motion
4.04532 °/min
Orbital period
88.99 mins
BSTAR
0.0039144
Loading maneuver chart data...
Computing Atmospheric mass density...

Documentation

Showing up to 5 results
|